Location: Unspecified
(0.0000°N, 0.0000°E)
Time: 15:20:31
(UTC+00:00)

Amsat-Oscar-6 - Pass Details

Date: 18 June 2019
Orbit: 1448 x 1454 km, 101.8° (Epoch: 15 July)

Event Time Altitude Azimuth Distance (km) Brightness Sun altitude
Rises 01:45:34 0° 53° (NE) 4,545 ? -55.5°
Reaches altitude 10° 01:49:47 10° 73° (ENE) 3,570 ? -54.7°
Enters shadow 01:52:29 15° 91° (E) 3,194 ? -54.2°
